,,PA_Meas_PMT16A,,PR_Meas_QMR101_102,,RH_Meas_QMH101,,SR_Meas_QMS101,,TA_Meas_QMH101,,GenWind,,GenWind,
time,status,PA,status,PR,status,RH,status,SR,status,TA,status,DirAvg,status,SpdAvg,
2010-03-12, 00:00:05,VALID,921.549,VALID,0,VALID,79.6266,VALID,0.107441,VALID,22.2176,VALID,157,VALID,1.11914,
2010-03-12, 00:01:05,VALID,921.565,VALID,0,VALID,79.5427,VALID,0,VALID,22.1786,VALID,100,VALID,0.829687,
2010-03-12, 00:02:05,VALID,921.549,VALID,0,VALID,79.7104,VALID,0,VALID,22.1591,VALID,100,VALID,0.452734,
2010-03-12, 00:03:05,VALID,921.516,VALID,0,VALID,79.4512,VALID,0.107441,VALID,22.1786,VALID,137,VALID,1.40156,
2010-03-12, 00:04:05,VALID,921.505,VALID,0,VALID,79.4284,VALID,0.107441,VALID,22.2176,VALID,172,VALID,0.912891,
2010-03-12, 00:05:05,VALID,921.491,VALID,0,VALID,79.5275,VALID,0,VALID,22.1981,VALID,194,VALID,1.38711,
2010-03-12, 00:06:05,VALID,921.479,VALID,0,VALID,80.5643,VALID,0,VALID,22.1591,VALID,158,VALID,1.0043,
2010-03-12, 00:07:05,VALID,921.495,VALID,0,VALID,79.3369,VALID,0,VALID,22.1201,VALID,158,VALID,0.959766,
2010-03-12, 00:08:05,VALID,921.474,VALID,0,VALID,79.7562,VALID,0,VALID,22.1591,VALID,95,VALID,0.309766,
2010-03-12, 00:09:05,VALID,921.493,VALID,0,VALID,79.558,VALID,0,VALID,22.1396,VALID,162,VALID,1.16211,
2010-03-12, 00:10:05,VALID,921.449,VALID,0,VALID,80.1069,VALID,0,VALID,22.1396,VALID,178,VALID,1.26758,
2010-03-12, 00:11:05,VALID,921.422,VALID,0,VALID,80.3203,VALID,0,VALID,22.081,VALID,178,VALID,0.906641,
2010-03-12, 00:12:05,VALID,921.432,VALID,0,VALID,80.5109,VALID,0,VALID,22.042,VALID,178,VALID,0.930469,
2010-03-12, 00:13:05,VALID,921.375,VALID,0,VALID,80.5414,VALID,0,VALID,22.0437,VALID,178,VALID,0.899609,
2010-03-12, 00:14:05,VALID,921.437,VALID,0,VALID,80.5643,VALID,0,VALID,22.003,VALID,174,VALID,1.11523,
2010-03-12, 00:15:05,VALID,921.366,VALID,0,VALID,80.5033,VALID,0,VALID,21.9835,VALID,172,VALID,0.805469,
2010-03-12, 00:16:05,VALID,921.394,VALID,0,VALID,80.8616,VALID,0,VALID,22.0047,VALID,148,VALID,0.799219,
2010-03-12, 00:17:05,VALID,921.387,VALID,0,VALID,80.0916,VALID,0,VALID,21.964,VALID,137,VALID,0.953906,
2010-03-12, 00:18:05,VALID,921.378,VALID,0,VALID,80.793,VALID,0,VALID,21.9835,VALID,172,VALID,0.785547,
2010-03-12, 00:19:05,VALID,921.396,VALID,0,VALID,81.014,VALID,0,VALID,21.9249,VALID,129,VALID,1.36289,
2010-03-12, 00:20:05,VALID,921.371,VALID,0,VALID,80.8616,VALID,0,VALID,21.8859,VALID,119,VALID,1.02148,
2010-03-12, 00:21:05,VALID,921.363,VALID,0,VALID,80.6176,VALID,0,VALID,21.8876,VALID,110,VALID,0.974219,
2010-03-12, 00:22:05,VALID,921.393,VALID,0,VALID,80.8844,VALID,0,VALID,21.8664,VALID,110,VALID,1.05508,
2010-03-12, 00:23:05,VALID,921.35,VALID,0,VALID,80.488,VALID,0,VALID,21.8469,VALID,110,VALID,1.14102,
2010-03-12, 00:24:05,VALID,921.326,VALID,0,VALID,80.549,VALID,0,VALID,21.8664,VALID,110,VALID,0.306641,
2010-03-12, 00:25:05,VALID,921.299,VALID,0,VALID,80.5948,VALID,0,VALID,21.8647,VALID,110,VALID,0.422656,
2010-03-12, 00:26:05,VALID,921.303,VALID,0,VALID,80.4652,VALID,0,VALID,21.8859,VALID,173,VALID,1.02461,
2010-03-12, 00:27:05,VALID,921.294,VALID,0,VALID,80.4575,VALID,0.107441,VALID,21.8469,VALID,189,VALID,1.02344,
2010-03-12, 00:28:05,VALID,921.329,VALID,0,VALID,80.5261,VALID,0,VALID,21.8664,VALID,169,VALID,2.05234,
2010-03-12, 00:29:05,VALID,921.346,VALID,0,VALID,80.7472,VALID,0,VALID,21.8274,VALID,159,VALID,1.23789,
2010-03-12, 00:30:05,VALID,921.301,VALID,0,VALID,81.2732,VALID,0,VALID,21.8079,VALID,145,VALID,0.675781,
2010-03-12, 00:31:05,VALID,921.284,VALID,0,VALID,80.9988,VALID,0,VALID,21.7493,VALID,137,VALID,0.960156,
2010-03-12, 00:32:05,VALID,921.3,VALID,0,VALID,81.4257,VALID,0,VALID,21.7298,VALID,137,VALID,0.121094,
2010-03-12, 00:33:05,VALID,921.269,VALID,0,VALID,81.136,VALID,0,VALID,21.7298,VALID,137,VALID,0.331641,
2010-03-12, 00:34:05,VALID,921.262,VALID,0,VALID,81.6087,VALID,0,VALID,21.7298,VALID,137,VALID,1.37266,
2010-03-12, 00:35:05,VALID,921.232,VALID,0,VALID,81.4333,VALID,0,VALID,21.6908,VALID,158,VALID,1.20586,
2010-03-12, 00:36:05,VALID,921.248,VALID,0,VALID,81.9365,VALID,0,VALID,21.6924,VALID,171,VALID,1.05781,
2010-03-12, 00:37:05,VALID,921.269,VALID,0,VALID,81.6925,VALID,0,VALID,21.6908,VALID,151,VALID,0.912891,
2010-03-12, 00:38:05,VALID,921.23,VALID,0,VALID,81.7611,VALID,0,VALID,21.6713,VALID,204,VALID,1.49219,
2010-03-12, 00:39:05,VALID,921.213,VALID,0,VALID,82.1576,VALID,0,VALID,21.6518,VALID,175,VALID,1.0375,
2010-03-12, 00:40:05,VALID,921.251,VALID,0,VALID,82.0356,VALID,0,VALID,21.6323,VALID,174,VALID,1.04727,
2010-03-12, 00:41:05,VALID,921.194,VALID,0,VALID,82.1042,VALID,0,VALID,21.6128,VALID,204,VALID,1.58867,
2010-03-12, 00:42:05,VALID,921.183,VALID,0,VALID,81.6544,VALID,0,VALID,21.6323,VALID,215,VALID,1.63008,
2010-03-12, 00:43:05,VALID,921.17,VALID,0,VALID,81.5096,VALID,0,VALID,21.6908,VALID,216,VALID,1.59492,
2010-03-12, 00:44:05,VALID,921.148,VALID,0,VALID,81.5705,VALID,0,VALID,21.6908,VALID,213,VALID,1.38398,
2010-03-12, 00:45:05,VALID,921.164,VALID,0,VALID,81.7154,VALID,0,VALID,21.6908,VALID,216,VALID,1.16562,
2010-03-12, 00:46:05,VALID,921.156,VALID,0,VALID,81.8984,VALID,0,VALID,21.6713,VALID,240,VALID,1.00312,
2010-03-12, 00:47:05,VALID,921.103,VALID,0,VALID,82.2185,VALID,0.107441,VALID,21.6713,VALID,194,VALID,1.37773,
2010-03-12, 00:48:05,VALID,921.074,VALID,0,VALID,82.3634,VALID,0,VALID,21.6323,VALID,190,VALID,1.06797,
2010-03-12, 00:49:05,VALID,921.117,VALID,0,VALID,82.3253,VALID,0.107441,VALID,21.5932,VALID,206,VALID,1.50703,
2010-03-12, 00:50:05,VALID,921.085,VALID,0,VALID,81.9517,VALID,0,VALID,21.6128,VALID,208,VALID,1.4082,
2010-03-12, 00:51:05,VALID,921.091,VALID,0,VALID,82.0813,VALID,0.107441,VALID,21.6323,VALID,190,VALID,1.41797,
2010-03-12, 00:52:05,VALID,921.032,VALID,0,VALID,81.7764,VALID,0,VALID,21.6323,VALID,221,VALID,1.21836,
2010-03-12, 00:53:05,VALID,921.01,VALID,0,VALID,81.7154,VALID,0,VALID,21.6729,VALID,246,VALID,1.5125,
2010-03-12, 00:54:05,VALID,921.016,VALID,0,VALID,81.7764,VALID,0,VALID,21.6908,VALID,221,VALID,1.81602,
2010-03-12, 00:55:05,VALID,921.002,VALID,0,VALID,82.0889,VALID,0,VALID,21.6518,VALID,215,VALID,1.38047,
2010-03-12, 00:56:05,VALID,920.998,VALID,0,VALID,82.2185,VALID,0,VALID,21.6323,VALID,215,VALID,1.18906,
2010-03-12, 00:57:05,VALID,921.02,VALID,0,VALID,82.1347,VALID,0,VALID,21.6128,VALID,176,VALID,0.908203,
2010-03-12, 00:58:05,VALID,921.038,VALID,0,VALID,81.8755,VALID,0,VALID,21.6128,VALID,200,VALID,1.38906,
2010-03-12, 00:59:05,VALID,921.056,VALID,0,VALID,81.9136,VALID,0,VALID,21.6518,VALID,225,VALID,1.5125,
2010-03-12, 01:00:05,VALID,921.053,VALID,0,VALID,82.5692,VALID,0,VALID,21.5916,VALID,169,VALID,1.12266,
2010-03-12, 01:01:05,VALID,921.052,VALID,0,VALID,82.5616,VALID,0.107441,VALID,21.5932,VALID,183,VALID,0.813281,
2010-03-12, 01:02:04,VALID,921.042,VALID,0,VALID,83.3849,VALID,0,VALID,21.5152,VALID,106,VALID,1.20117,
2010-03-12, 01:03:04,VALID,921.024,VALID,0,VALID,83.2858,VALID,0,VALID,21.4778,VALID,108,VALID,0.980859,
2010-03-12, 01:04:04,VALID,921.033,VALID,0,VALID,82.8055,VALID,0,VALID,21.4177,VALID,108,VALID,1.27695,
2010-03-12, 01:05:04,VALID,920.978,VALID,0,VALID,83.0495,VALID,0,VALID,21.4583,VALID,108,VALID,0.861328,
2010-03-12, 01:06:04,VALID,920.95,VALID,0,VALID,83.4993,VALID,0,VALID,21.4762,VALID,158,VALID,0.753516,
2010-03-12, 01:07:04,VALID,920.934,VALID,0,VALID,83.3011,VALID,0,VALID,21.4372,VALID,193,VALID,0.53125,
2010-03-12, 01:08:04,VALID,920.928,VALID,0,VALID,83.2782,VALID,0,VALID,21.4372,VALID,193,VALID,0.580859,
2010-03-12, 01:09:04,VALID,920.928,VALID,0,VALID,83.1029,VALID,0,VALID,21.4177,VALID,193,VALID,1.14219,
2010-03-12, 01:10:04,VALID,920.934,VALID,0,VALID,82.9428,VALID,0,VALID,21.4372,VALID,193,VALID,0.842969,
2010-03-12, 01:11:04,VALID,920.939,VALID,0,VALID,83.1334,VALID,0,VALID,21.4372,VALID,185,VALID,1.30859,
2010-03-12, 01:12:04,VALID,920.917,VALID,0,VALID,82.7827,VALID,0,VALID,21.416,VALID,134,VALID,1.07266,
2010-03-12, 01:13:04,VALID,920.858,VALID,0,VALID,82.8513,VALID,0,VALID,21.4567,VALID,120,VALID,1.08906,
2010-03-12, 01:14:04,VALID,920.806,VALID,0,VALID,82.5768,VALID,0.107441,VALID,21.4762,VALID,67,VALID,1.71094,
2010-03-12, 01:15:04,VALID,920.801,VALID,0,VALID,82.6607,VALID,0,VALID,21.5152,VALID,89,VALID,1.3543,
2010-03-12, 01:16:04,VALID,920.816,VALID,0,VALID,82.5006,VALID,0,VALID,21.5363,VALID,93,VALID,1.09414,
2010-03-12, 01:17:04,VALID,920.834,VALID,0,VALID,83.2858,VALID,0,VALID,21.5152,VALID,92,VALID,1.69258,
2010-03-12, 01:18:04,VALID,920.834,VALID,0,VALID,83.1791,VALID,0,VALID,21.4583,VALID,111,VALID,1.33828,
2010-03-12, 01:19:04,VALID,920.863,VALID,0,VALID,83.5908,VALID,0,VALID,21.4177,VALID,111,VALID,0.774219,
2010-03-12, 01:20:04,VALID,920.861,VALID,0,VALID,82.9809,VALID,0,VALID,21.4177,VALID,111,VALID,0.662109,
2010-03-12, 01:21:04,VALID,920.88,VALID,0,VALID,82.958,VALID,0,VALID,21.4567,VALID,111,VALID,0.498437,
2010-03-12, 01:22:04,VALID,920.864,VALID,0,VALID,83.2401,VALID,0,VALID,21.4778,VALID,111,VALID,0.524609,
2010-03-12, 01:23:04,VALID,920.846,VALID,0,VALID,83.0647,VALID,0,VALID,21.4762,VALID,200,VALID,0.927734,
2010-03-12, 01:24:04,VALID,920.823,VALID,0,VALID,83.019,VALID,0,VALID,21.4762,VALID,208,VALID,1.06797,
2010-03-12, 01:25:04,VALID,920.808,VALID,0,VALID,83.4993,VALID,0,VALID,21.4762,VALID,127,VALID,0.854688,
2010-03-12, 01:26:04,VALID,920.793,VALID,0,VALID,83.141,VALID,0,VALID,21.4762,VALID,127,VALID,0.75625,
2010-03-12, 01:27:04,VALID,920.774,VALID,0,VALID,83.0419,VALID,0,VALID,21.4973,VALID,127,VALID,0.796094,
2010-03-12, 01:28:04,VALID,920.815,VALID,0,VALID,83.4459,VALID,0,VALID,21.4973,VALID,127,VALID,0.733594,
2010-03-12, 01:29:04,VALID,920.793,VALID,0,VALID,83.3621,VALID,0,VALID,21.4372,VALID,127,VALID,1.44258,
2010-03-12, 01:30:04,VALID,920.734,VALID,0,VALID,83.484,VALID,0,VALID,21.4372,VALID,127,VALID,1.21055,
2010-03-12, 01:31:04,VALID,920.703,VALID,0,VALID,83.3849,VALID,0,VALID,21.4388,VALID,127,VALID,0.994922,
2010-03-12, 01:32:04,VALID,920.724,VALID,0,VALID,83.2782,VALID,0.107441,VALID,21.4177,VALID,127,VALID,0.959766,
2010-03-12, 01:33:04,VALID,920.71,VALID,0,VALID,83.8881,VALID,0,VALID,21.4372,VALID,127,VALID,0.652344,
2010-03-12, 01:34:04,VALID,920.702,VALID,0,VALID,83.7127,VALID,0,VALID,21.3981,VALID,127,VALID,0.829687,
2010-03-12, 01:35:04,VALID,920.661,VALID,0,VALID,83.8118,VALID,0,VALID,21.3591,VALID,127,VALID,0.868359,
2010-03-12, 01:36:04,VALID,920.648,VALID,0,VALID,84.1625,VALID,0,VALID,21.3396,VALID,127,VALID,1.08555,
2010-03-12, 01:37:04,VALID,920.639,VALID,0,VALID,84.7343,VALID,0,VALID,21.3006,VALID,117,VALID,1.28984,
2010-03-12, 01:38:04,VALID,920.611,VALID,0,VALID,85.1688,VALID,0,VALID,21.2047,VALID,57,VALID,1.53437,
2010-03-12, 01:39:04,VALID,920.571,VALID,0,VALID,85.3213,VALID,0,VALID,21.1461,VALID,108,VALID,1.13281,
2010-03-12, 01:40:04,VALID,920.574,VALID,0,VALID,85.7863,VALID,0,VALID,21.086,VALID,107,VALID,0.805469,
2010-03-12, 01:41:04,VALID,920.584,VALID,0,VALID,85.5652,VALID,0,VALID,21.0876,VALID,110,VALID,1.57969,
2010-03-12, 01:42:04,VALID,920.583,VALID,0,VALID,85.8854,VALID,0,VALID,21.0681,VALID,108,VALID,0.630078,
2010-03-12, 01:43:04,VALID,920.562,VALID,0,VALID,85.428,VALID,0,VALID,21.0681,VALID,108,VALID,1.1832,
2010-03-12, 01:44:04,VALID,920.528,VALID,0,VALID,85.0468,VALID,0,VALID,21.1071,VALID,83,VALID,1.5168,
2010-03-12, 01:45:04,VALID,920.547,VALID,0,VALID,84.6885,VALID,0,VALID,21.1461,VALID,108,VALID,1.08633,
2010-03-12, 01:46:04,VALID,920.529,VALID,0,VALID,84.4065,VALID,0,VALID,21.1836,VALID,124,VALID,0.569141,
2010-03-12, 01:47:04,VALID,920.514,VALID,0,VALID,84.0405,VALID,0,VALID,21.2616,VALID,128,VALID,1.4668,
2010-03-12, 01:48:04,VALID,920.545,VALID,0,VALID,84.0329,VALID,0,VALID,21.3006,VALID,110,VALID,0.864062,
2010-03-12, 01:49:04,VALID,920.514,VALID,0,VALID,84.376,VALID,0,VALID,21.3006,VALID,110,VALID,1.00039,
2010-03-12, 01:50:04,VALID,920.492,VALID,0,VALID,84.0939,VALID,0,VALID,21.2811,VALID,110,VALID,0.660547,
2010-03-12, 01:51:04,VALID,920.474,VALID,0,VALID,84.437,VALID,0,VALID,21.2616,VALID,172,VALID,1.07773,
2010-03-12, 01:52:04,VALID,920.487,VALID,0,VALID,83.5526,VALID,0,VALID,21.2811,VALID,164,VALID,1.7543,
2010-03-12, 01:53:04,VALID,920.5,VALID,0,VALID,83.5755,VALID,0,VALID,21.3608,VALID,133,VALID,1.3,
2010-03-12, 01:54:04,VALID,920.485,VALID,0,VALID,83.7432,VALID,0,VALID,21.3608,VALID,133,VALID,0.817187,
2010-03-12, 01:55:04,VALID,920.475,VALID,0,VALID,83.8423,VALID,0,VALID,21.3412,VALID,133,VALID,1.05234,
2010-03-12, 01:56:04,VALID,920.412,VALID,0,VALID,83.8728,VALID,0,VALID,21.3201,VALID,178,VALID,0.982031,
2010-03-12, 01:57:04,VALID,920.415,VALID,0,VALID,84.0253,VALID,0,VALID,21.3217,VALID,153,VALID,1.28125,
2010-03-12, 01:58:04,VALID,920.415,VALID,0,VALID,83.8195,VALID,0,VALID,21.2811,VALID,172,VALID,1.71445,
2010-03-12, 01:59:04,VALID,920.372,VALID,0,VALID,84.2006,VALID,0,VALID,21.2827,VALID,175,VALID,1.02813,
2010-03-12, 02:00:04,VALID,920.403,VALID,0,VALID,84.4141,VALID,0,VALID,21.2632,VALID,179,VALID,0.916016,
2010-03-12, 02:01:04,VALID,920.37,VALID,0,VALID,84.4751,VALID,0,VALID,21.2226,VALID,179,VALID,1.47891,
2010-03-12, 02:02:04,VALID,920.335,VALID,0,VALID,84.193,VALID,0,VALID,21.2242,VALID,183,VALID,1.48438,
2010-03-12, 02:03:04,VALID,920.329,VALID,0,VALID,84.3379,VALID,0,VALID,21.2031,VALID,182,VALID,1.23711,
2010-03-12, 02:04:04,VALID,920.3,VALID,0,VALID,84.8486,VALID,0,VALID,21.2242,VALID,182,VALID,0.785547,
2010-03-12, 02:05:04,VALID,920.285,VALID,0,VALID,84.4522,VALID,0,VALID,21.2047,VALID,141,VALID,1.57422,
2010-03-12, 02:06:04,VALID,920.261,VALID,0,VALID,84.5437,VALID,0,VALID,21.2047,VALID,136,VALID,1.23203,
2010-03-12, 02:07:04,VALID,920.27,VALID,0,VALID,84.78,VALID,0,VALID,21.1657,VALID,137,VALID,0.794531,
2010-03-12, 02:08:04,VALID,920.273,VALID,0,VALID,84.9325,VALID,0,VALID,21.1657,VALID,169,VALID,1.04609,
2010-03-12, 02:09:04,VALID,920.252,VALID,0,VALID,84.3988,VALID,0,VALID,21.1657,VALID,221,VALID,0.866797,
2010-03-12, 02:10:04,VALID,920.277,VALID,0,VALID,84.7419,VALID,0,VALID,21.1852,VALID,160,VALID,1.10312,
2010-03-12, 02:11:04,VALID,920.29,VALID,0,VALID,84.3988,VALID,0,VALID,21.1852,VALID,148,VALID,1.08203,
2010-03-12, 02:12:04,VALID,920.267,VALID,0,VALID,84.2769,VALID,0,VALID,21.164,VALID,165,VALID,1.2082,
2010-03-12, 02:13:04,VALID,920.242,VALID,0,VALID,84.4217,VALID,0,VALID,21.1836,VALID,165,VALID,0.671094,
2010-03-12, 02:14:04,VALID,920.3,VALID,0,VALID,84.2387,VALID,0,VALID,21.1852,VALID,165,VALID,0.484766,
2010-03-12, 02:15:04,VALID,920.268,VALID,0,VALID,84.1625,VALID,0,VALID,21.2242,VALID,201,VALID,1.33555,
2010-03-12, 02:16:04,VALID,920.263,VALID,0,VALID,83.8957,VALID,0,VALID,21.2843,VALID,192,VALID,0.957031,
2010-03-12, 02:17:04,VALID,920.259,VALID,0,VALID,83.7127,VALID,0,VALID,21.3022,VALID,231,VALID,0.437891,
2010-03-12, 02:18:04,VALID,920.186,VALID,0,VALID,83.6517,VALID,0,VALID,21.3022,VALID,231,VALID,0.741797,
2010-03-12, 02:19:04,VALID,920.187,VALID,0,VALID,84.2083,VALID,0,VALID,21.3217,VALID,231,VALID,0.905859,
2010-03-12, 02:20:04,VALID,920.158,VALID,0,VALID,84.3455,VALID,0,VALID,21.2632,VALID,200,VALID,1.61641,
2010-03-12, 02:21:04,VALID,920.165,VALID,0,VALID,84.3379,VALID,0,VALID,21.2453,VALID,187,VALID,1.63906,
2010-03-12, 02:22:04,VALID,920.163,VALID,0,VALID,84.7648,VALID,0,VALID,21.2242,VALID,202,VALID,0.680078,
2010-03-12, 02:23:04,VALID,920.119,VALID,0,VALID,84.7953,VALID,0,VALID,21.1852,VALID,202,VALID,0.590234,
2010-03-12, 02:24:04,VALID,920.142,VALID,0,VALID,84.9553,VALID,0,VALID,21.1461,VALID,197,VALID,1.73477,
2010-03-12, 02:25:04,VALID,920.106,VALID,0,VALID,85.0316,VALID,0,VALID,21.1266,VALID,180,VALID,1.20039,
2010-03-12, 02:26:04,VALID,920.082,VALID,0,VALID,85.1993,VALID,0,VALID,21.1266,VALID,157,VALID,0.469531,
2010-03-12, 02:27:04,VALID,920.071,VALID,0,VALID,85.1307,VALID,0,VALID,21.1071,VALID,198,VALID,1.25703,
2010-03-12, 02:28:04,VALID,920.057,VALID,0,VALID,85.2908,VALID,0,VALID,21.0876,VALID,205,VALID,1.04062,
2010-03-12, 02:29:04,VALID,920.052,VALID,0,VALID,85.4356,VALID,0,VALID,21.0876,VALID,205,VALID,0.565625,
2010-03-12, 02:30:04,VALID,920.068,VALID,0,VALID,85.4432,VALID,0,VALID,21.0681,VALID,205,VALID,1.27578,
2010-03-12, 02:31:04,VALID,920.065,VALID,0,VALID,85.832,VALID,0,VALID,21.0486,VALID,205,VALID,0.971875,
2010-03-12, 02:32:04,VALID,920.076,VALID,0,VALID,85.7253,VALID,0,VALID,21.0486,VALID,205,VALID,1.16094,
2010-03-12, 02:33:04,VALID,920.08,VALID,0,VALID,85.5271,VALID,0,VALID,21.0486,VALID,205,VALID,0.437891,
2010-03-12, 02:34:04,VALID,920.074,VALID,0,VALID,85.2222,VALID,0,VALID,21.0275,VALID,205,VALID,1.48242,
2010-03-12, 02:35:04,VALID,920.047,VALID,0,VALID,85.4356,VALID,0,VALID,21.0876,VALID,205,VALID,1.10195,
2010-03-12, 02:36:04,VALID,920.001,VALID,0,VALID,85.5271,VALID,0,VALID,21.0681,VALID,209,VALID,1.54688,
2010-03-12, 02:37:04,VALID,919.985,VALID,0,VALID,85.7558,VALID,0,VALID,21.0486,VALID,166,VALID,1.02031,
2010-03-12, 02:38:04,VALID,919.977,VALID,0,VALID,85.8702,VALID,0,VALID,21.0291,VALID,166,VALID,1.32578,
2010-03-12, 02:39:04,VALID,919.98,VALID,0,VALID,85.893,VALID,0,VALID,21.0291,VALID,166,VALID,0.836328,
2010-03-12, 02:40:04,VALID,919.977,VALID,0,VALID,86.2285,VALID,0,VALID,21.008,VALID,166,VALID,0.509766,
2010-03-12, 02:41:04,VALID,919.924,VALID,0,VALID,86.0531,VALID,0,VALID,20.9885,VALID,166,VALID,0.727344,
2010-03-12, 02:42:04,VALID,919.949,VALID,0,VALID,86.0836,VALID,0,VALID,21.0096,VALID,142,VALID,0.673047,
2010-03-12, 02:43:04,VALID,919.93,VALID,0,VALID,85.4661,VALID,0,VALID,21.0681,VALID,195,VALID,1.51836,
2010-03-12, 02:44:04,VALID,919.896,VALID,0,VALID,85.2755,VALID,0,VALID,21.1071,VALID,185,VALID,0.963281,
2010-03-12, 02:45:04,VALID,919.892,VALID,0,VALID,85.3518,VALID,0,VALID,21.1071,VALID,184,VALID,0.710547,
2010-03-12, 02:46:04,VALID,919.921,VALID,0,VALID,85.3441,VALID,0,VALID,21.1071,VALID,184,VALID,0.736328,
2010-03-12, 02:47:04,VALID,919.937,VALID,0,VALID,85.5957,VALID,0,VALID,21.1071,VALID,184,VALID,1.12773,
2010-03-12, 02:48:04,VALID,919.923,VALID,0,VALID,85.7634,VALID,0,VALID,21.0876,VALID,184,VALID,0.582422,
2010-03-12, 02:49:04,VALID,919.905,VALID,0,VALID,85.7939,VALID,0,VALID,21.0486,VALID,184,VALID,0.79375,
2010-03-12, 02:50:04,VALID,919.884,VALID,0,VALID,86.0684,VALID,0,VALID,21.0291,VALID,191,VALID,1.64141,
2010-03-12, 02:51:04,VALID,919.886,VALID,0,VALID,85.8778,VALID,0,VALID,21.0096,VALID,269,VALID,0.869531,
2010-03-12, 02:52:04,VALID,919.903,VALID,0,VALID,85.7329,VALID,0,VALID,21.0291,VALID,269,VALID,0.733594,
2010-03-12, 02:53:04,VALID,919.858,VALID,0,VALID,86.0379,VALID,0,VALID,21.0486,VALID,269,VALID,0.204688,
2010-03-12, 02:54:04,VALID,919.83,VALID,0,VALID,86.1598,VALID,0,VALID,21.0502,VALID,269,VALID,0.4875,
2010-03-12, 02:55:04,VALID,919.849,VALID,0,VALID,85.9083,VALID,0,VALID,21.0096,VALID,269,VALID,0.262109,
2010-03-12, 02:56:04,VALID,919.807,VALID,0,VALID,86.015,VALID,0,VALID,21.0096,VALID,269,VALID,0.4625,
2010-03-12, 02:57:04,VALID,919.822,VALID,0,VALID,86.1598,VALID,0,VALID,21.0096,VALID,269,VALID,0.450781,
2010-03-12, 02:58:04,VALID,919.835,VALID,0,VALID,85.954,VALID,0,VALID,20.9901,VALID,269,VALID,0.49375,
2010-03-12, 02:59:04,VALID,919.809,VALID,0,VALID,86.1827,VALID,0,VALID,20.9901,VALID,269,VALID,0.669531,
2010-03-12, 03:00:04,VALID,919.752,VALID,0,VALID,86.2361,VALID,0,VALID,20.9511,VALID,268,VALID,1.08281,
2010-03-12, 03:01:04,VALID,919.81,VALID,0,VALID,87.189,VALID,0,VALID,20.9511,VALID,268,VALID,0.851563,
2010-03-12, 03:02:04,VALID,919.797,VALID,0,VALID,87.3415,VALID,0,VALID,20.834,VALID,268,VALID,1.09609,
2010-03-12, 03:03:04,VALID,919.792,VALID,0,VALID,87.4939,VALID,0,VALID,20.756,VALID,267,VALID,1.02031,
2010-03-12, 03:04:04,VALID,919.803,VALID,0,VALID,87.0061,VALID,0,VALID,20.7365,VALID,167,VALID,1.60273,
2010-03-12, 03:05:04,VALID,919.773,VALID,0,VALID,86.8383,VALID,0,VALID,20.8925,VALID,118,VALID,1.01797,
2010-03-12, 03:06:04,VALID,919.753,VALID,0,VALID,86.1598,VALID,0,VALID,20.9316,VALID,118,VALID,0.451953,
2010-03-12, 03:07:04,VALID,919.745,VALID,0,VALID,86.3428,VALID,0,VALID,20.9901,VALID,118,VALID,0.578906,
2010-03-12, 03:08:04,VALID,919.724,VALID,0,VALID,86.5791,VALID,0,VALID,21.0291,VALID,118,VALID,0.273438,
2010-03-12, 03:09:04,VALID,919.724,VALID,0,VALID,86.2971,VALID,0,VALID,21.0096,VALID,118,VALID,0.69375,
2010-03-12, 03:10:04,VALID,919.714,VALID,0,VALID,86.1294,VALID,0,VALID,21.0486,VALID,184,VALID,1.1625,
2010-03-12, 03:11:04,VALID,919.724,VALID,0,VALID,85.5042,VALID,0,VALID,21.0486,VALID,154,VALID,1.54492,
2010-03-12, 03:12:04,VALID,919.714,VALID,0,VALID,85.8244,VALID,0,VALID,21.1266,VALID,139,VALID,0.735547,
2010-03-12, 03:13:04,VALID,919.696,VALID,0,VALID,85.611,VALID,0,VALID,21.1461,VALID,118,VALID,1.27891,
2010-03-12, 03:14:04,VALID,919.691,VALID,0,VALID,85.7177,VALID,0,VALID,21.1266,VALID,89,VALID,1.02383,
2010-03-12, 03:15:04,VALID,919.73,VALID,0,VALID,85.9388,VALID,0,VALID,21.1071,VALID,139,VALID,0.878906,
2010-03-12, 03:16:04,VALID,919.716,VALID,0,VALID,85.4585,VALID,0,VALID,21.1071,VALID,130,VALID,2.00977,
2010-03-12, 03:17:04,VALID,919.738,VALID,0,VALID,86.0989,VALID,0,VALID,21.1266,VALID,135,VALID,0.600781,
2010-03-12, 03:18:04,VALID,919.684,VALID,0,VALID,85.9998,VALID,0,VALID,21.1071,VALID,138,VALID,0.763672,
2010-03-12, 03:19:04,VALID,919.717,VALID,0,VALID,85.9769,VALID,0,VALID,21.1071,VALID,130,VALID,1.11133,
2010-03-12, 03:20:04,VALID,919.733,VALID,0,VALID,85.9845,VALID,0,VALID,21.1266,VALID,104,VALID,1.0082,
2010-03-12, 03:21:04,VALID,919.744,VALID,0,VALID,85.5881,VALID,0,VALID,21.1266,VALID,120,VALID,2.37109,
2010-03-12, 03:22:04,VALID,919.737,VALID,0,VALID,85.3136,VALID,0,VALID,21.1657,VALID,130,VALID,1.99727,
2010-03-12, 03:23:04,VALID,919.736,VALID,0,VALID,85.489,VALID,0,VALID,21.1852,VALID,138,VALID,1.25508,
2010-03-12, 03:24:04,VALID,919.716,VALID,0,VALID,85.5576,VALID,0,VALID,21.1852,VALID,126,VALID,1.66953,
2010-03-12, 03:25:04,VALID,919.733,VALID,0,VALID,85.6415,VALID,0,VALID,21.164,VALID,100,VALID,1.71094,
2010-03-12, 03:26:04,VALID,919.754,VALID,0,VALID,85.428,VALID,0,VALID,21.2047,VALID,80,VALID,1.57031,
2010-03-12, 03:27:04,VALID,919.757,VALID,0,VALID,85.367,VALID,0,VALID,21.2242,VALID,91,VALID,1.54531,
2010-03-12, 03:28:04,VALID,919.749,VALID,0,VALID,85.1154,VALID,0,VALID,21.2632,VALID,88,VALID,1.3832,
2010-03-12, 03:29:04,VALID,919.754,VALID,0,VALID,85.2755,VALID,0,VALID,21.2421,VALID,125,VALID,1.85742,
2010-03-12, 03:30:04,VALID,919.74,VALID,0,VALID,85.367,VALID,0,VALID,21.2632,VALID,96,VALID,1.24766,
2010-03-12, 03:31:04,VALID,919.748,VALID,0,VALID,85.5271,VALID,0,VALID,21.2421,VALID,126,VALID,1.19219,
2010-03-12, 03:32:04,VALID,919.753,VALID,0,VALID,85.245,VALID,0,VALID,21.2242,VALID,115,VALID,1.77266,
2010-03-12, 03:33:04,VALID,919.75,VALID,0,VALID,85.0545,VALID,0,VALID,21.2632,VALID,117,VALID,1.80586,
2010-03-12, 03:34:04,VALID,919.751,VALID,0,VALID,85.1612,VALID,0,VALID,21.2811,VALID,118,VALID,0.965234,
2010-03-12, 03:35:04,VALID,919.764,VALID,0,VALID,84.3912,VALID,0,VALID,21.3412,VALID,84,VALID,1.98242,
2010-03-12, 03:36:04,VALID,919.749,VALID,0,VALID,84.1396,VALID,0,VALID,21.3981,VALID,103,VALID,2.43281,
2010-03-12, 03:37:04,VALID,919.738,VALID,0,VALID,84.1168,VALID,0,VALID,21.4388,VALID,84,VALID,1.56797,
2010-03-12, 03:38:04,VALID,919.774,VALID,0,VALID,84.3455,VALID,0,VALID,21.4177,VALID,63,VALID,1.46719,
2010-03-12, 03:39:04,VALID,919.741,VALID,0,VALID,83.9719,VALID,0,VALID,21.4388,VALID,82,VALID,1.29727,
2010-03-12, 03:40:04,VALID,919.758,VALID,0,VALID,84.1549,VALID,0,VALID,21.4583,VALID,77,VALID,1.075,
2010-03-12, 03:41:04,VALID,919.756,VALID,0,VALID,84.2845,VALID,0,VALID,21.4372,VALID,104,VALID,2.04766,
2010-03-12, 03:42:04,VALID,919.753,VALID,0,VALID,84.6199,VALID,0,VALID,21.4193,VALID,83,VALID,0.974609,
2010-03-12, 03:43:04,VALID,919.772,VALID,0,VALID,85.1612,VALID,0,VALID,21.3998,VALID,83,VALID,0.922656,
2010-03-12, 03:44:04,VALID,919.735,VALID,0,VALID,85.3213,VALID,0,VALID,21.3412,VALID,88,VALID,1.56406,
2010-03-12, 03:45:04,VALID,919.724,VALID,0,VALID,85.5576,VALID,0,VALID,21.3022,VALID,124,VALID,1.39648,